Location: Gandikunta
(16.3784°N, 80.8378°E)
Time: 00:21:41
(UTC+00:00)

Cosmos 2221 Rocket - Pass Details

Date: 19 May 2025
Orbit: 616 x 642 km, 82.5° (Epoch: 18 June)

Event Time Altitude Azimuth Distance (km) Brightness Sun altitude
Exits shadow 22:50:24 - 175° (S) 2,800 6.7 -17.1°
Reaches altitude 10° 22:52:23 10° 171° (S) 2,005 6.0 -16.7°
Maximum altitude 22:56:44 56° 93° (E) 748 4.3 -15.8°
Drops below altitude 10° 23:01:03 10° 15° (NNE) 1,991 6.8 -14.9°
Sets 23:03:18 0° 11° (NNE) 2,894 7.6 -14.4°
